Flag for Switzerland Weather past 2 weeks in Montreux, Vaud, Switzerland

Now
76 °F

Passing clouds.


Feels Like: 77 °F
Forecast: 52 / 72 °F
Wind: 9 mph from North

Location: Aigle

Current Time: Aug 1, 2014 at 2:58:03 PM

Latest Report: Aug 1, 2014 at 2:00 PM


Visibility: 13 mi

Pressure: 29.78 "Hg

Humidity: 68%

Dew point: 64 °F

Location of MontreuxLocation

Historic Weather in Montreux — Graph

°F

Montreux temperature yesterday

Maximum temperature yesterday: 77 °F (at 6:00 PM)
Minimum temperature yesterday: 63 °F (at 5:00 AM)
Average temperature yesterday: 68 °F

Past Weeks' High & Low Weather Summary

 TemperatureHumidityPressure
High85 °F (Jul 18, 6:00 PM)99% (Jul 22, 1:00 AM)30.13 "Hg (Jul 22, 1:00 AM)
Low56 °F (Jul 25, 6:00 AM)42% (Jul 19, 4:00 PM)29.79 "Hg (Jul 29, 3:00 PM)
Average66 °F84%29.93 "Hg
* Reported Jul 17 1:00 PM — Aug 1 1:00 PM, Montreux, Weather by CustomWeather, © 2014

Note: Actual official high and low records may vary slightly from our data, if they occured in-between our weather recording intervals... More about our weather records

Advertising

Montreux weather history for previous 24 hours

 ConditionsComfort  
Time TempWeatherWind HumidityBarometerVisibility
1:00 PM
Aug 1
74 °FMild.7 mph71%29.79 "HgN/A
12:00 PM74 °FMild.7 mph71%29.82 "HgN/A
11:00 AM71 °FPartly sunny.6 mph76%29.84 "Hg12 mi
10:00 AM69 °FMild.6 mph81%29.84 "HgN/A
9:00 AM68 °FMild.1 mph86%29.85 "HgN/A
8:00 AM66 °FFog.1 mph91%29.86 "Hg7 mi
7:00 AM63 °FMild.1 mph96%29.87 "HgN/A
6:00 AM63 °FMild.2 mph97%29.87 "HgN/A
5:00 AM63 °FFog.3 mph95%29.88 "Hg3 mi
4:00 AM63 °FMild.2 mph97%29.88 "HgN/A
3:00 AM63 °FMild.1 mph98%29.89 "HgN/A
2:00 AM63 °FMild.1 mph96%29.90 "HgN/A
1:00 AM63 °FMild.No wind96%29.90 "HgN/A
12:00 AM62 °FCool.No wind97%29.90 "HgN/A
11:00 PM
Jul 31
65 °FMild.2 mph90%29.88 "HgN/A
10:00 PM69 °FMild.2 mph82%29.87 "HgN/A
9:00 PM67 °FMild.2 mph89%29.86 "HgN/A
8:00 PM74 °FScattered clouds.2 mph70%29.84 "Hg18 mi
7:00 PM76 °FMild.6 mph64%29.83 "HgN/A
6:00 PM77 °FMild.8 mph64%29.84 "HgN/A
5:00 PM76 °FPartly sunny.10 mph61%29.85 "Hg16 mi
4:00 PM76 °FMild.10 mph68%29.87 "HgN/A
3:00 PM75 °FMild.9 mph69%29.88 "HgN/A
2:00 PM74 °FPartly sunny.7 mph70%29.90 "Hg17 mi
Weather by CustomWeather, © 2014

See weather overviewHow to use our weather pages